Time,TemperatureF,DewpointF,PressureIn,WindDirection,WindDirectionDegrees,WindSpeedMPH,WindSpeedGustMPH,Humidity,HourlyPrecipIn,Conditions,Clouds,dailyrainin,SoftwareType,DateUTC
2013-01-31 08:02:00,15.0,7.0,-100.00,WNW,285,9.0,17.0,70,-99.99,,,-99.99,,2013-01-31 14:02:00,
2013-01-31 08:11:00,14.0,6.0,-100.00,WNW,290,9.0,15.0,69,-99.99,,,-99.99,,2013-01-31 14:11:00,
2013-01-31 08:22:00,15.0,7.0,-100.00,WNW,295,6.0,13.0,70,-99.99,,,-99.99,,2013-01-31 14:22:00,
2013-01-31 08:32:00,15.0,7.0,-100.00,WNW,295,6.0,13.0,70,-99.99,,,-99.99,,2013-01-31 14:32:00,
2013-01-31 08:42:00,15.0,7.0,-100.00,WNW,290,8.0,14.0,71,-99.99,,,-99.99,,2013-01-31 14:42:00,
2013-01-31 08:52:00,15.0,7.0,-100.00,WNW,290,10.0,17.0,71,-99.99,,,-99.99,,2013-01-31 14:52:00,
2013-01-31 09:03:00,15.0,7.0,-100.00,WNW,290,10.0,17.0,71,-99.99,,,-99.99,,2013-01-31 15:03:00,
2013-01-31 09:12:00,15.0,7.0,-100.00,West,280,8.0,16.0,71,-99.99,,,-99.99,,2013-01-31 15:12:00,
2013-01-31 09:22:00,16.0,8.0,-100.00,WNW,285,10.0,16.0,71,-99.99,,,-99.99,,2013-01-31 15:22:00,
2013-01-31 09:32:00,16.0,8.0,-100.00,WNW,285,10.0,16.0,71,-99.99,,,-99.99,,2013-01-31 15:32:00,
2013-01-31 09:42:00,15.0,7.0,-100.00,WNW,290,10.0,19.0,68,-99.99,,,-99.99,,2013-01-31 15:42:00,
2013-01-31 09:52:00,15.0,7.0,-100.00,West,265,11.0,20.0,69,-99.99,,,-99.99,,2013-01-31 15:52:00,
2013-01-31 10:03:00,15.0,7.0,-100.00,West,265,11.0,20.0,69,-99.99,,,-99.99,,2013-01-31 16:03:00,
2013-01-31 10:12:00,15.0,7.0,-100.00,West,270,14.0,19.0,70,-99.99,,,-99.99,,2013-01-31 16:12:00,
2013-01-31 10:22:00,14.0,6.0,-100.00,West,280,15.0,20.0,70,-99.99,,,-99.99,,2013-01-31 16:22:00,
2013-01-31 10:33:00,14.0,6.0,-100.00,West,280,15.0,20.0,70,-99.99,,,-99.99,,2013-01-31 16:33:00,
2013-01-31 10:42:00,13.0,6.0,-100.00,West,270,14.0,19.0,73,-99.99,,,-99.99,,2013-01-31 16:42:00,
2013-01-31 10:52:00,14.0,7.0,-100.00,West,270,12.0,17.0,73,-99.99,,,-99.99,,2013-01-31 16:52:00,
2013-01-31 11:02:00,14.0,7.0,-100.00,West,270,12.0,17.0,73,-99.99,,,-99.99,,2013-01-31 17:02:00,
2013-01-31 11:12:00,14.0,7.0,-100.00,West,275,11.0,17.0,72,-99.99,,,-99.99,,2013-01-31 17:12:00,
2013-01-31 11:23:00,14.0,6.0,-100.00,West,275,13.0,23.0,68,-99.99,,,-99.99,,2013-01-31 17:23:00,
2013-01-31 11:32:00,14.0,6.0,-100.00,West,275,13.0,23.0,68,-99.99,,,-99.99,,2013-01-31 17:32:00,
2013-01-31 11:43:00,14.0,4.0,-100.00,WNW,295,13.0,20.0,65,-99.99,,,-99.99,,2013-01-31 17:43:00,
2013-01-31 11:53:00,15.0,5.0,-100.00,WNW,295,11.0,20.0,64,-99.99,,,-99.99,,2013-01-31 17:53:00,
2013-01-31 12:03:00,15.0,5.0,-100.00,WNW,295,11.0,20.0,64,-99.99,,,-99.99,,2013-01-31 18:03:00,
2013-01-31 12:12:00,14.0,4.0,-100.00,WNW,290,14.0,19.0,63,-99.99,,,-99.99,,2013-01-31 18:12:00,
2013-01-31 12:22:00,16.0,5.0,-100.00,West,265,18.0,21.0,63,-99.99,,,-99.99,,2013-01-31 18:22:00,
2013-01-31 12:32:00,16.0,5.0,-100.00,West,265,18.0,21.0,63,-99.99,,,-99.99,,2013-01-31 18:32:00,
2013-01-31 12:43:00,15.0,4.0,-100.00,WNW,285,13.0,20.0,62,-99.99,,,-99.99,,2013-01-31 18:43:00,
2013-01-31 12:52:00,15.0,5.0,-100.00,NW,305,11.0,19.0,63,-99.99,,,-99.99,,2013-01-31 18:52:00,
2013-01-31 13:02:00,15.0,5.0,-100.00,NW,305,11.0,19.0,63,-99.99,,,-99.99,,2013-01-31 19:02:00,
2013-01-31 13:12:00,14.0,4.0,-100.00,West,270,11.0,21.0,63,-99.99,,,-99.99,,2013-01-31 19:12:00,
2013-01-31 13:22:00,14.0,4.0,-100.00,West,280,14.0,20.0,62,-99.99,,,-99.99,,2013-01-31 19:22:00,
2013-01-31 13:32:00,14.0,4.0,-100.00,West,280,14.0,20.0,62,-99.99,,,-99.99,,2013-01-31 19:32:00,
2013-01-31 13:42:00,14.0,4.0,-100.00,West,280,14.0,20.0,62,-99.99,,,-99.99,,2013-01-31 19:42:00,
2013-01-31 13:52:00,14.0,4.0,-100.00,WNW,285,11.0,19.0,64,-99.99,,,-99.99,,2013-01-31 19:52:00,
2013-01-31 14:02:00,14.0,4.0,-100.00,WNW,285,11.0,19.0,64,-99.99,,,-99.99,,2013-01-31 20:02:00,
2013-01-31 14:11:00,13.0,3.0,-100.00,West,280,15.0,19.0,62,-99.99,,,-99.99,,2013-01-31 20:11:00,
2013-01-31 14:22:00,13.0,3.0,-100.00,West,275,14.0,20.0,61,-99.99,,,-99.99,,2013-01-31 20:22:00,
2013-01-31 14:31:00,13.0,3.0,-100.00,West,275,14.0,20.0,61,-99.99,,,-99.99,,2013-01-31 20:31:00,
2013-01-31 14:42:00,13.0,3.0,-100.00,West,275,14.0,20.0,61,-99.99,,,-99.99,,2013-01-31 20:42:00,
2013-01-31 14:52:00,13.0,2.0,-100.00,WNW,290,14.0,19.0,61,-99.99,,,-99.99,,2013-01-31 20:52:00,
2013-01-31 15:02:00,13.0,2.0,-100.00,WNW,290,14.0,19.0,61,-99.99,,,-99.99,,2013-01-31 21:02:00,
2013-01-31 15:12:00,13.0,2.0,-100.00,WNW,300,14.0,22.0,59,-99.99,,,-99.99,,2013-01-31 21:12:00,
2013-01-31 15:22:00,13.0,1.0,-100.00,WNW,290,13.0,22.0,59,-99.99,,,-99.99,,2013-01-31 21:22:00,
2013-01-31 15:32:00,13.0,1.0,-100.00,WNW,290,13.0,22.0,59,-99.99,,,-99.99,,2013-01-31 21:32:00,
2013-01-31 15:42:00,12.0,2.0,-100.00,West,280,13.0,20.0,61,-99.99,,,-99.99,,2013-01-31 21:42:00,
2013-01-31 15:52:00,12.0,1.0,-100.00,West,280,13.0,21.0,60,-99.99,,,-99.99,,2013-01-31 21:52:00,
2013-01-31 16:03:00,12.0,1.0,-100.00,West,280,13.0,21.0,60,-99.99,,,-99.99,,2013-01-31 22:03:00,
2013-01-31 16:11:00,12.0,1.0,-100.00,WNW,295,12.0,21.0,61,-99.99,,,-99.99,,2013-01-31 22:11:00,
2013-01-31 16:22:00,11.0,0.0,-100.00,WNW,285,14.0,21.0,59,-99.99,,,-99.99,,2013-01-31 22:22:00,
2013-01-31 16:33:00,11.0,-1.0,-100.00,West,280,12.0,22.0,58,-99.99,,,-99.99,,2013-01-31 22:33:00,
2013-01-31 16:42:00,11.0,-1.0,-100.00,West,280,12.0,22.0,58,-99.99,,,-99.99,,2013-01-31 22:42:00,
2013-01-31 16:52:00,11.0,0.0,-100.00,West,275,14.0,21.0,61,-99.99,,,-99.99,,2013-01-31 22:52:00,
2013-01-31 17:01:00,10.0,-1.0,-100.00,WNW,285,11.0,23.0,61,-99.99,,,-99.99,,2013-01-31 23:01:00,
2013-01-31 17:02:00,11.0,0.0,-100.00,West,275,14.0,21.0,61,-99.99,,,-99.99,,2013-01-31 23:02:00,
2013-01-31 17:12:00,10.0,0.0,-100.00,West,270,16.0,21.0,62,-99.99,,,-99.99,,2013-01-31 23:12:00,
2013-01-31 17:22:00,10.0,-1.0,-100.00,WNW,295,15.0,24.0,60,-99.99,,,-99.99,,2013-01-31 23:22:00,
2013-01-31 17:32:00,10.0,-1.0,-100.00,WNW,295,15.0,24.0,60,-99.99,,,-99.99,,2013-01-31 23:32:00,
2013-01-31 17:42:00,10.0,-1.0,-100.00,WNW,285,11.0,23.0,61,-99.99,,,-99.99,,2013-01-31 23:42:00,
2013-01-31 17:52:00,10.0,-1.0,-100.00,WNW,285,11.0,23.0,61,-99.99,,,-99.99,,2013-01-31 23:52:00,
2013-01-31 18:11:00,9.0,-1.0,-100.00,WNW,290,15.0,21.0,65,-99.99,,,-99.99,,2013-02-01 00:11:00,
2013-01-31 18:22:00,8.0,-2.0,-100.00,West,280,13.0,24.0,61,-99.99,,,-99.99,,2013-02-01 00:22:00,
2013-01-31 18:32:00,8.0,-2.0,-100.00,West,280,14.0,21.0,61,-99.99,,,-99.99,,2013-02-01 00:32:00,
2013-01-31 18:42:00,8.0,-2.0,-100.00,West,280,14.0,21.0,61,-99.99,,,-99.99,,2013-02-01 00:42:00,
2013-01-31 18:52:00,8.0,-3.0,-100.00,West,270,14.0,21.0,60,-99.99,,,-99.99,,2013-02-01 00:52:00,
2013-01-31 19:01:00,8.0,-3.0,-100.00,West,270,14.0,21.0,60,-99.99,,,-99.99,,2013-02-01 01:01:00,
2013-01-31 19:11:00,8.0,-3.0,-100.00,WNW,285,14.0,23.0,60,-99.99,,,-99.99,,2013-02-01 01:11:00,
2013-01-31 19:21:00,8.0,-2.0,-100.00,WNW,285,14.0,23.0,63,-99.99,,,-99.99,,2013-02-01 01:21:00,
2013-01-31 19:32:00,8.0,-2.0,-100.00,WNW,285,14.0,23.0,63,-99.99,,,-99.99,,2013-02-01 01:32:00,
2013-01-31 19:42:00,8.0,-1.0,-100.00,WNW,295,14.0,20.0,66,-99.99,,,-99.99,,2013-02-01 01:42:00,
2013-01-31 19:52:00,7.0,-2.0,-100.00,WNW,295,18.0,26.0,64,-99.99,,,-99.99,,2013-02-01 01:52:00,
2013-01-31 20:02:00,7.0,-2.0,-100.00,WNW,295,18.0,26.0,64,-99.99,,,-99.99,,2013-02-01 02:02:00,
2013-01-31 20:11:00,7.0,-3.0,-100.00,WNW,295,16.0,24.0,63,-99.99,,,-99.99,,2013-02-01 02:11:00,
2013-01-31 20:21:00,7.0,-3.0,-100.00,WNW,295,12.0,19.0,64,-99.99,,,-99.99,,2013-02-01 02:21:00,
2013-01-31 20:32:00,7.0,-3.0,-100.00,WNW,295,12.0,19.0,64,-99.99,,,-99.99,,2013-02-01 02:32:00,
2013-01-31 20:42:00,7.0,-2.0,-100.00,West,280,14.0,21.0,66,-99.99,,,-99.99,,2013-02-01 02:42:00,
2013-01-31 20:52:00,6.0,-2.0,-100.00,West,280,11.0,19.0,69,-99.99,,,-99.99,,2013-02-01 02:52:00,
2013-01-31 21:02:00,6.0,-2.0,-100.00,West,280,11.0,19.0,69,-99.99,,,-99.99,,2013-02-01 03:02:00,
2013-01-31 21:12:00,6.0,-1.0,-100.00,WNW,285,14.0,18.0,71,-99.99,,,-99.99,,2013-02-01 03:12:00,
2013-01-31 21:21:00,6.0,-3.0,-100.00,WNW,290,12.0,23.0,65,-99.99,,,-99.99,,2013-02-01 03:21:00,
2013-01-31 21:32:00,6.0,-3.0,-100.00,WNW,290,12.0,23.0,65,-99.99,,,-99.99,,2013-02-01 03:32:00,
2013-01-31 21:42:00,6.0,-3.0,-100.00,WNW,295,15.0,19.0,66,-99.99,,,-99.99,,2013-02-01 03:42:00,
2013-01-31 21:52:00,6.0,-3.0,-100.00,West,275,14.0,20.0,66,-99.99,,,-99.99,,2013-02-01 03:52:00,
2013-01-31 22:02:00,6.0,-3.0,-100.00,West,275,14.0,20.0,66,-99.99,,,-99.99,,2013-02-01 04:02:00,
2013-01-31 22:11:00,6.0,-4.0,-100.00,WNW,290,16.0,21.0,63,-99.99,,,-99.99,,2013-02-01 04:11:00,
2013-01-31 22:21:00,5.0,-4.0,-100.00,WNW,295,13.0,22.0,63,-99.99,,,-99.99,,2013-02-01 04:21:00,
2013-01-31 22:32:00,5.0,-4.0,-100.00,NW,305,15.0,21.0,65,-99.99,,,-99.99,,2013-02-01 04:32:00,
2013-01-31 22:41:00,5.0,-4.0,-100.00,NW,305,15.0,21.0,65,-99.99,,,-99.99,,2013-02-01 04:41:00,
2013-01-31 22:52:00,5.0,-5.0,-100.00,NW,305,14.0,19.0,63,-99.99,,,-99.99,,2013-02-01 04:52:00,
2013-01-31 23:03:00,5.0,-5.0,-100.00,NW,305,14.0,19.0,63,-99.99,,,-99.99,,2013-02-01 05:03:00,
2013-01-31 23:12:00,5.0,-5.0,-100.00,WNW,295,13.0,21.0,63,-99.99,,,-99.99,,2013-02-01 05:12:00,
2013-01-31 23:22:00,5.0,-5.0,-100.00,WNW,295,13.0,19.0,62,-99.99,,,-99.99,,2013-02-01 05:22:00,
2013-01-31 23:32:00,5.0,-5.0,-100.00,WNW,295,12.0,17.0,63,-99.99,,,-99.99,,2013-02-01 05:32:00,
2013-01-31 23:42:00,5.0,-5.0,-100.00,WNW,295,12.0,17.0,63,-99.99,,,-99.99,,2013-02-01 05:42:00,
2013-01-31 23:52:00,4.0,-5.0,-100.00,WNW,300,11.0,18.0,64,-99.99,,,-99.99,,2013-02-01 05:52:00,